Lexington Weather

Lexington, Massachusetts, USA

53°F
9/29/2022 3:36am 
  • Lexington Conditions: Clear
  • Temperature: 52.9°F / 11.6°CColder 1.2°F than last hour.
  • Dew Point: 48.6°FDecreased 0.9°Fsince last hour.
  • Relative Humidity: 85%Increased 1.0% since last hour.
  • Wind: Calm, 10-min avg: Calm, gust: None
  • Barometer: 30.19 in Steady
  • Visibility: 10 miles
  • Rain Today: 0.00 in
  •   

Regional Weather Roundup
for Boston, MA

        
000
ASUS41 KBOX 280710
RWRBOX

REGIONAL WEATHER ROUNDUP
NATIONAL WEATHER SERVICE BOSTON/NORTON MA
300 AM EDT WED SEP 28 2022

NOTE:  "FAIR" INDICATES FEW OR NO CLOUDS BELOW 12,000 FEET WITH NO 
SIGNIFICANT WEATHER AND/OR OBSTRUCTIONS TO VISIBILITY.

MAZALL-280800-
EASTERN MASSACHUSETTS
  
CITY           SKY/WX    TMP DP  RH WIND       PRES   REMARKS
BOSTON         MOCLDY    58  49  72 SW12      29.93S                  
BEVERLY        MOCLDY    54  49  83 W3        29.91F                  
LAWRENCE       CLOUDY    54  49  83 S5        29.94R                  
BEDFORD        CLOUDY    54  49  83 SW6       29.92R                  
NORWOOD        MOCLDY    56  50  80 SW6       29.94R                  
MARSHFIELD     PTCLDY    54  48  82 SW5       29.94R                  
PLYMOUTH       PTCLDY    54  48  80 SW8       29.95R                  
TAUNTON          N/A    N/A N/A N/A MISG      29.95R                  
NEW BEDFORD    CLEAR     50  48  93 SW6       29.95R                  
$$

MAZALL-280800-
CAPE COD AND THE ISLANDS
  
CITY           SKY/WX    TMP DP  RH WIND       PRES   REMARKS
FALMOUTH       CLEAR     54  48  82 W6        29.96S                  
HYANNIS        CLEAR     49  46  90 CALM      29.95S                  
CHATHAM        CLEAR     58  49  72 VRB3      29.96S                  
PROVINCETOWN   CLEAR     58  51  78 W13       29.94S                  
NANTUCKET      CLEAR     61  51  70 W8        29.97R                  
MARTHAS VNYRD  CLEAR     48  46  93 CALM      29.97R                  
$$
 
MAZALL-280800-
CENTRAL AND WESTERN MASSACHUSETTS
  
CITY           SKY/WX    TMP DP  RH WIND       PRES   REMARKS
WORCESTER      MOCLDY    52  48  86 W10       29.94S                  
FITCHBURG      CLOUDY    52  47  83 N3        29.93S                  
ORANGE         CLOUDY    49  47  93 CALM      29.96R                  
SPRINGFIELD    CLOUDY    51  49  95 CALM      29.93S                  
WESTFIELD      MOCLDY    51  48  89 CALM      29.95S                  
NORTH ADAMS    CLOUDY    53  52  96 VRB3      29.94S                  
PITTSFIELD     CLOUDY    53  48  83 SW6       29.94S                  
$$
 
RIZALL-280800-
RHODE ISLAND
  
CITY           SKY/WX    TMP DP  RH WIND       PRES   REMARKS
PROVIDENCE     CLEAR     53  47  79 W6        29.96R                  
NEWPORT        CLEAR     56  48  74 W5        29.96R                  
BLOCK ISLAND   MOCLDY    61  48  62 W5        29.98R                  
SMITHFIELD     PTCLDY    52  48  86 SW3       29.95S                  
WESTERLY       CLEAR     51  47  86 CALM      29.96S                  
$$
 
CTZALL-280800-
CONNECTICUT
  
CITY           SKY/WX    TMP DP  RH WIND       PRES   REMARKS
BRADLEY INTL   PTCLDY    52  47  83 SW5       29.96R                  
HARTFORD       CLEAR     52  47  83 CALM      29.96S                  
BRIDGEPORT     CLEAR     55  47  74 W6        29.97S                  
DANBURY        CLEAR     48  44  86 CALM      29.99S                  
GROTON         PTCLDY    53  48  83 NW5       29.96S                  
NEW HAVEN      CLEAR     55  49  80 CALM      29.97R                  
CHESTER        FAIR      54  48  82 CALM      29.97S                  
MERIDEN        CLEAR     48  46  93 CALM      29.97R                  
WILLIMANTIC    CLEAR     49  48  97 CALM      29.96F                  
OXFORD         CLEAR     49  47  93 CALM      29.98S                  
$$

MEZ002-015-021-024-NHZ003-005-008-011-012-014-VTZ005-008-280800-
NORTHERN NEW ENGLAND
  
CITY           SKY/WX    TMP DP  RH WIND       PRES   REMARKS
PORTLAND ME    CLEAR     50  47  89 SW3       29.89R                  
BANGOR ME      FOG       53  53 100 S3        29.88R VSB 1/4          
CONCORD NH     PTCLDY    50  48  93 E9        29.90S                  
MANCHESTER NH  MOCLDY    54  49  83 SW6       29.90S                  
NASHUA NH      MOCLDY    53  53 100 W3        29.93R                  
PORTSMOUTH NH  MOCLDY    52  49  88 SW6       29.90R                  
JAFFREY NH     CLEAR     50  47  89 S6        29.94R                  
KEENE NH       MOCLDY    51  50  96 SW7         N/A                   
BURLINGTON VT  CLOUDY    55  51  86 SW7       29.89R                  
MT. WASHINGTON FOG       34  34 100 W14         N/A  VSB 1/16WCI  24  
$$

NYZ052-076-280800-
EASTERN NEW YORK
  
CITY           SKY/WX    TMP DP  RH WIND       PRES   REMARKS
ALBANY         CLOUDY    54  52  93 CALM      29.94S                  
NEW YORK CITY  CLEAR     59  43  55 W9        30.00R                  
$$
 
ANZALL-280800-
MARINE OBSERVATIONS
  
STATION/POSITION TIME  TEMP    WIND        PRES    VSBY  WAVE
                       AIR SEA DIR/SP/G                  HT/PER
                 (UTC) (F)     (DEG/KT/KT) (MB)    (MI)  (FT/S)
BOSTON BUOY      0650      61  250/ 10/ 12 1013.5S         2/ 3
BUZZARDS BAY     0600   63     260/ 19/ 21 1014.7R
NANTUCKET SOUND  0650   65 67  280/ 14/ 17 1014.2R         2/ 3
MASS BAY-STELLWA 0504   60 61  240/ 12/ 14 1012.0R  1 7/8  3/ 8
ISLE OF SHOALS   0600   58     250/ 10/ 12 1012.1R
S OF BLOCK IS    0656      67                N/A           5/ 9
$$

......................KEY.........................
  SKY/WX - SKY CONDITION/PRESENT WEATHER
  TMP    - TEMPERATURE IN FAHRENHEIT
  DWPT   - DEWPOINT IN FAHRENHEIT
  RH     - RELATIVE HUMIDITY IN PERCENT
  WIND   - DIRECTION AND SPEED IN MPH
  PRES   - MEAN SEA LEVEL PRESSURE IN INCHES OF HG
  WCI    - WIND CHILL INDEX
  VSB    - VISIBILITY IN MILES
  HX     - HEAT INDEX
  TC     - TEMPERATURE IN CELSIUS
  VRB    - VARIABLE WIND DIRECTION
  N/A    - NOT AVAILABLE
  
      

Other recent Regional Weather Roundups

Thu Sep 29, 3:10am

Thu Sep 29, 2:10am

Thu Sep 29, 1:10am

Thu Sep 29, 12:10am

Wed Sep 28, 11:10pm

Wed Sep 28, 10:10pm

Wed Sep 28, 9:10pm

Wed Sep 28, 8:10pm

Wed Sep 28, 7:10pm

Wed Sep 28, 6:10pm

Wed Sep 28, 5:10pm

Wed Sep 28, 4:10pm

Wed Sep 28, 3:10pm

Wed Sep 28, 2:10pm

Wed Sep 28, 1:10pm

Wed Sep 28, 12:10pm

Wed Sep 28, 11:10am

Wed Sep 28, 10:10am

Wed Sep 28, 9:10am

Wed Sep 28, 8:10am

Wed Sep 28, 7:10am

Wed Sep 28, 6:10am

Wed Sep 28, 5:10am

Wed Sep 28, 4:10am

Wed Sep 28, 2:10am

Wed Sep 28, 1:10am

Wed Sep 28, 12:10am

Tue Sep 27, 11:10pm

Tue Sep 27, 10:10pm

Tue Sep 27, 9:10pm

Tue Sep 27, 8:10pm

Tue Sep 27, 7:10pm

Tue Sep 27, 6:10pm

Tue Sep 27, 5:10pm

Tue Sep 27, 4:10pm

Tue Sep 27, 3:10pm

Tue Sep 27, 2:10pm

Tue Sep 27, 1:10pm

Tue Sep 27, 12:10pm

Tue Sep 27, 11:10am

Tue Sep 27, 10:10am

Tue Sep 27, 9:10am

Tue Sep 27, 8:10am

Tue Sep 27, 7:10am

Tue Sep 27, 6:10am

Tue Sep 27, 5:10am

Tue Sep 27, 4:10am

Tue Sep 27, 3:10am

Tue Sep 27, 2:10am

Tue Sep 27, 1:10am

Tue Sep 27, 12:10am

Mon Sep 26, 11:10pm

Mon Sep 26, 10:10pm

Mon Sep 26, 9:10pm

Mon Sep 26, 8:10pm

Mon Sep 26, 7:10pm

Mon Sep 26, 6:10pm

Mon Sep 26, 5:10pm

Mon Sep 26, 4:10pm

Mon Sep 26, 3:10pm

Mon Sep 26, 2:10pm

Mon Sep 26, 1:10pm

Mon Sep 26, 12:10pm

Mon Sep 26, 11:10am

Mon Sep 26, 10:10am

Mon Sep 26, 9:10am

Mon Sep 26, 8:10am

Mon Sep 26, 7:10am

Mon Sep 26, 6:10am

Mon Sep 26, 5:10am

Mon Sep 26, 4:10am

Mon Sep 26, 3:10am

Mon Sep 26, 2:10am

Mon Sep 26, 1:10am

Mon Sep 26, 12:10am

Sun Sep 25, 11:10pm

Sun Sep 25, 10:10pm

Sun Sep 25, 9:10pm

Sun Sep 25, 8:10pm

Sun Sep 25, 7:10pm

Sun Sep 25, 6:10pm

Sun Sep 25, 5:10pm

Sun Sep 25, 4:10pm

Sun Sep 25, 3:10pm

Sun Sep 25, 2:10pm

Sun Sep 25, 1:10pm

Sun Sep 25, 12:10pm

Sun Sep 25, 11:10am

Sun Sep 25, 10:10am

Sun Sep 25, 9:10am

Sun Sep 25, 8:10am

Sun Sep 25, 7:10am

Sun Sep 25, 6:10am

Sun Sep 25, 5:10am

Sun Sep 25, 4:10am

Sun Sep 25, 3:10am

Sun Sep 25, 2:10am

Sun Sep 25, 1:10am

Sun Sep 25, 12:10am

Sat Sep 24, 11:10pm

Sat Sep 24, 10:10pm

Sat Sep 24, 9:10pm

Sat Sep 24, 8:10pm

Sat Sep 24, 7:10pm

Sat Sep 24, 6:10pm

Sat Sep 24, 5:10pm

Sat Sep 24, 4:10pm

Sat Sep 24, 3:10pm

Sat Sep 24, 2:10pm

Sat Sep 24, 1:10pm

Sat Sep 24, 12:10pm

Sat Sep 24, 11:10am

Sat Sep 24, 10:10am

Sat Sep 24, 9:10am

Sat Sep 24, 8:10am

Sat Sep 24, 7:10am

Sat Sep 24, 6:10am

Sat Sep 24, 5:10am

Sat Sep 24, 4:10am

Sat Sep 24, 3:10am

Sat Sep 24, 2:10am

Sat Sep 24, 1:10am

Sat Sep 24, 12:10am

Fri Sep 23, 11:10pm

Fri Sep 23, 10:10pm

Fri Sep 23, 9:10pm

Fri Sep 23, 8:10pm

Fri Sep 23, 7:10pm

Fri Sep 23, 6:10pm

Fri Sep 23, 5:10pm

Fri Sep 23, 4:10pm

Fri Sep 23, 3:10pm

Fri Sep 23, 2:10pm

Fri Sep 23, 1:10pm

Fri Sep 23, 12:10pm

Fri Sep 23, 11:10am

Fri Sep 23, 10:10am

Fri Sep 23, 9:10am

Fri Sep 23, 8:10am

Fri Sep 23, 7:10am

Fri Sep 23, 6:10am

Fri Sep 23, 5:10am

Fri Sep 23, 4:10am

Fri Sep 23, 3:10am

Fri Sep 23, 2:10am

Fri Sep 23, 1:10am

Fri Sep 23, 12:10am

Thu Sep 22, 11:10pm

Thu Sep 22, 10:10pm

Thu Sep 22, 9:10pm

Thu Sep 22, 8:10pm

Thu Sep 22, 7:10pm

Thu Sep 22, 6:10pm

Thu Sep 22, 5:10pm

Thu Sep 22, 4:10pm

Thu Sep 22, 3:10pm

Thu Sep 22, 2:10pm

Thu Sep 22, 1:10pm

Thu Sep 22, 12:10pm

Thu Sep 22, 11:10am

Thu Sep 22, 10:10am

Thu Sep 22, 9:10am

Thu Sep 22, 8:10am

Thu Sep 22, 7:10am

Thu Sep 22, 6:10am

Thu Sep 22, 5:10am

Thu Sep 22, 4:10am

Meta data:

ID: 4aca7ece-f2a1-45a6-8c55-37a9778f516e
Link: https://api.weather.gov/products/4aca7ece-f2a1-45a6-8c55-37a9778f516e